User: anonymous   Login
Location: Buchberg
(46.9333°N, 15.8500°E)
Time: 06:27:30
(UTC+00:00)
Language:

BREEZE-M DEB (TANK) - Orbit

View from above orbital plane
View from above orbital plane
View from above satellite
View from above satellite

Ground track
Ground track

The orbit data is extracted from the following two-line orbital elements,

1 33279U 08039B   20273.05957250 +.00000013 +00000-0 +99294-4 0  9992
2 33279 045.9581 161.8799 4843484 184.1521 169.6762 05.71745520251085
Epoch (UTC): 29 September 2020 01:25:47
Eccentricity: 0.4843484
inclination: 45.9581°
perigee height: 434 km
apogee height: 13231 km
right ascension of ascending node: 161.8799°
argument of perigee: 184.1521°
revolutions per day: 5.71745520
mean anomaly at epoch: 169.6762°
orbit number at epoch: 25108

The dashed part of the orbit path shows where the satellite is in the earth's shadow,  

DLR